This is the latest recevied weather packets stored in our database for station/object KI5QCM. If no packets are shown the sender has not sent any weather packets the latest 10 day(s).
| Time | Temp. | Humidity | Pressure | Rain* | Wind** | Luminosity | Snow |
|---|---|---|---|---|---|---|---|
| 1788130569 | 38.89° C | 34% | 1011.3 hPa | 0 mm | - | 227 W/m² | - |
| 1788129929 | 38.89° C | 34% | 1011.2 hPa | 0 mm | - | 262 W/m² | - |
| 1788129321 | 38.89° C | 34% | 1011.1 hPa | 0 mm | - | 290 W/m² | - |
| 1788128745 | 38.89° C | 33% | 1011.1 hPa | 0 mm | - | 330 W/m² | - |
| 1788128169 | 38.89° C | 33% | 1011.3 hPa | 0 mm | - | 375 W/m² | - |
| 1788127577 | 38.89° C | 34% | 1011.2 hPa | 0 mm | - | 400 W/m² | - |
| 1788126921 | 39.44° C | 34% | 1011.2 hPa | 0 mm | - | 430 W/m² | - |
| 1788126345 | 38.89° C | 33% | 1011.4 hPa | 0 mm | - | 453 W/m² | - |
| 1788125769 | 39.44° C | 34% | 1011.5 hPa | 0 mm | - | 477 W/m² | - |
| 1788125129 | 38.89° C | 34% | 1011.5 hPa | 0 mm | - | 515 W/m² | - |
| 1788124553 | 39.44° C | 33% | 1011.5 hPa | 0 mm | - | 536 W/m² | - |
| 1788123977 | 39.44° C | 34% | 1011.8 hPa | 0 mm | - | 524 W/m² | - |
| 1788123321 | 39.44° C | 34% | 1011.9 hPa | 0 mm | - | 551 W/m² | - |
| 1788122735 | 39.44° C | 33% | 1012.1 hPa | 0 mm | - | 553 W/m² | - |
| 1788122169 | 39.44° C | 34% | 1012.1 hPa | 0 mm | - | 609 W/m² | - |
| 1788121529 | 39.44° C | 35% | 1012.2 hPa | 0 mm | - | 597 W/m² | - |
| 1788120933 | 39.44° C | 36% | 1012.5 hPa | 0 mm | - | 637 W/m² | - |
| 1788120361 | 38.89° C | 35% | 1012.5 hPa | 0 mm | - | 647 W/m² | - |
| 1788119786 | 38.33° C | 37% | 1012.7 hPa | 0 mm | - | 659 W/m² | - |
| 1788119129 | 38.89° C | 36% | 1012.7 hPa | 0 mm | - | 676 W/m² | - |
| 1788118553 | 38.89° C | 37% | 1013 hPa | 0 mm | - | 703 W/m² | - |
| 1788117977 | 38.33° C | 37% | 1013 hPa | 0 mm | - | 688 W/m² | - |
| 1788117337 | 38.89° C | 38% | 1013 hPa | 0 mm | - | 693 W/m² | - |
| 1788116762 | 38.33° C | 39% | 1013.2 hPa | 0 mm | - | 680 W/m² | - |
| 1788116169 | 38.33° C | 38% | 1013.2 hPa | 0 mm | - | 679 W/m² | - |
* Rain latest hour (hover to see other rain measurements)
** Current wind speed in m/s (hover to see current wind gust speed)